SICH 2

Satellite information

Favourite Embed

Satellite Type and Status

PAYLOADIN ORBIT

Key statistics

Satellite SICH 2 at a glance.

Uptime

5233

Days in orbit

Revolutions

≈ 14.7

Per day

Orbit

SSO

Sun Synchronous Orbit

Inclination

97.8

Latest

Satellite identification and parameters

Extended collection of information and parameters for SICH 2.

Object identification

Identified? True

Debris? False

Object name: SICH 2

International designator: 2011-044G

Object number (NORAD): 37794

Object ID (CCSDS): 37794

Country: UKRAINE (UKR)

Current information (Y/N): Y

RCS size: MEDIUM

Orbital parameters

Period: 98.272 minutes

Inclination: 97.8196 deg

SMA: 7054.192 km

Apoapsis: 685.293 km

Periapsis: 666.82 km

RAAN: 331.8518 deg

Eccentricy: 0.00130932

Argument of periapsis: 44.915 deg

Mean anomaly: 69.2749 deg

Mean motion: 14.6531803 rev/day

Mean motion (dot): 0.00001147 rev/day2

B* drag term: 0.00022072296 1/REarth

Two-line elements (TLE)

Creation date: Dec. 14, 2025, 3:07 a.m.

Reference frame: TEME

Reference center: EARTH

Epoch: Dec. 13, 2025, 1:32 p.m. UTC

TLE line 0: 0 SICH 2

TLE line 1: 1 37794U 11044G 25347.56417995 .00001147 00000-0 22072-3 0 9996

TLE line 2: 2 37794 97.8196 331.8518 0013093 44.9150 69.2749 14.65318030764274

Live tracking on map

Real-time ground track for satellite SICH 2.

In-orbit conjunctions

There are no conjunctions computed for SICH 2, at the moment. Check back to stay up to date, as we update our databases every day.

Go to all conjunctions

Associated space launch

SICH 2 was lifted into orbit during the mission ‘Dnepr 1 | Sich-2’, on board a Dnepr space rocket.

The launch took place on Aug. 17, 2011, 7:12 a.m. from 370/13.

For more information about the launch, click the button.

Launch to space Dnepr 1 | Sich-2
Dnepr 1 | Sich-2

Agency: N/A

Status: Launch Successful

Launch date: Aug. 17, 2011, 7:12 a.m. UTC

Rocket: Dnepr

Launch pad: 370/13

Location: Dombarovskiy, Russian Federation

...

Latest news about this satellite

There are no fresh news available about this satellite. Check back as we update our databases every day.


Newsletter sign-up

Weekly statistics, charts and insights to help you stay on top of the space industry.